Tracking 25612 objects as of 20-May-2022
HD Live streaming from Space Station
objects crossing your sky now

DODECAPOLE 2 DEB

Track DODECAPOLE 2 DEB now!
10-day predictions


NORAD ID: 41734
Int'l Code: 2016-051D
Perigee: 877.5 km
Apogee: 930.1 km
Inclination: 90.0 °
Period: 102.9 minutes
Semi major axis: 7274 km
RCS: Unknown
Launch date: August 15, 2016
Source: United States (US)
Launch site: Jiuquan Satellite Launch Center, China (JSC)

Note: This is SATELLITE DEBRIS
aabbcc
Your satellite tracking list
Your tracking list is empty




NASA's NSSDC Master Catalog

Two Line Element Set (TLE):
1 41734U 65065U   22139.10538395  .00004996  00000-0  34216-2 0  9998
2 41734  90.0304  16.8100 0036165 191.3202 168.7167 13.99173862326479
Source of the keplerian elements: AFSPC